#�ϑ�����,���ϕ���,���ϕ���,�ő啗��,�ő啗����������,�ő�u�ԕ���,�ő�u�ԕ�����������
#(�N����),(m/s)   ,(16����),(m/s)   ,(16����)        ,(m/s)       ,(16����)            
2015/11/14 0:01,2.6,4,2.6,4,5.5,4
2015/11/14 0:02,2.7,4,2.7,4,4.5,3
2015/11/14 0:03,2.7,4,2.7,4,3.2,3
2015/11/14 0:04,2.8,4,2.8,4,4.4,3
2015/11/14 0:05,2.9,3,2.9,3,4.2,4
2015/11/14 0:06,2.9,3,2.9,3,3.9,5
2015/11/14 0:07,3,3,3,3,4.9,3
2015/11/14 0:08,2.9,3,3,3,3.2,4
2015/11/14 0:09,2.9,3,2.9,3,4.1,3
2015/11/14 0:10,2.8,4,2.9,3,3.8,3
2015/11/14 0:11,2.6,4,2.8,3,2.7,5
2015/11/14 0:12,2.4,4,2.5,3,2.2,4
2015/11/14 0:13,2.4,4,2.4,3,3.1,4
2015/11/14 0:14,2.3,4,2.4,3,2.7,4
2015/11/14 0:15,2.2,4,2.3,3,4.2,3
2015/11/14 0:16,2.3,4,2.3,3,4.1,3
2015/11/14 0:17,2.2,4,2.3,3,3.9,3
2015/11/14 0:18,2.3,4,2.3,3,4.3,4
2015/11/14 0:19,2.2,4,2.3,3,2.9,4
2015/11/14 0:20,2.3,3,2.3,4,4.2,4
2015/11/14 0:21,2.3,3,2.3,4,3.5,3
2015/11/14 0:22,2.4,3,2.4,4,3.6,3
2015/11/14 0:23,2.4,3,2.4,4,3.6,3
2015/11/14 0:24,2.5,3,2.5,3,4.3,3
2015/11/14 0:25,2.6,3,2.6,3,3.7,2
2015/11/14 0:26,2.5,3,2.5,3,3.6,2
2015/11/14 0:27,2.4,3,2.5,3,3.7,2
2015/11/14 0:28,2.3,3,2.4,3,3.3,4
2015/11/14 0:29,2.5,3,2.5,3,5.1,3
2015/11/14 0:30,2.5,2,2.5,3,5.4,3
2015/11/14 0:31,2.7,2,2.7,2,4.7,4
2015/11/14 0:32,2.7,2,2.8,2,4.1,4
2015/11/14 0:33,2.8,2,2.8,2,4.2,1
2015/11/14 0:34,2.7,2,2.8,2,5,2
2015/11/14 0:35,2.8,2,2.8,2,4.7,3
2015/11/14 0:36,2.8,2,2.9,2,4.8,4
2015/11/14 0:37,2.9,3,2.9,2,4.1,3
2015/11/14 0:38,3,3,3,3,4.3,4
2015/11/14 0:39,2.9,3,3,3,3.2,3
2015/11/14 0:40,2.7,3,2.8,3,2,4
2015/11/14 0:41,2.4,3,2.6,3,2.7,3
2015/11/14 0:42,2.3,3,2.4,3,3.2,4
2015/11/14 0:43,2.3,4,2.3,3,2.9,2
2015/11/14 0:44,2.2,4,2.3,3,3.5,4
2015/11/14 0:45,2,4,2.2,3,2.6,4
2015/11/14 0:46,1.9,4,2,3,2,6
2015/11/14 0:47,1.7,5,1.9,3,1.8,6
2015/11/14 0:48,1.5,5,1.7,3,1.9,7
2015/11/14 0:49,1.4,5,1.5,3,2.2,6
2015/11/14 0:50,1.4,5,1.4,3,2.5,6
2015/11/14 0:51,1.3,6,1.4,3,0.8,9
2015/11/14 0:52,1.1,6,1.2,3,1.3,7
2015/11/14 0:53,1,7,1.1,4,1.8,10
2015/11/14 0:54,0.9,7,1,4,2.2,9
2015/11/14 0:55,0.9,8,0.9,4,2.5,10
2015/11/14 0:56,0.9,8,0.9,4,1.9,9
2015/11/14 0:57,1.1,9,1.1,5,2.2,11
2015/11/14 0:58,1.2,9,1.2,5,2.2,11
2015/11/14 0:59,1.3,10,1.3,5,2.9,12
2015/11/14 1:00,1.4,10,1.4,5,3.9,11
2015/11/14 1:01,1.8,11,1.8,11,4.7,10
2015/11/14 1:02,2.1,11,2.1,11,4.8,11
2015/11/14 1:03,2.4,11,2.4,11,5.2,10
2015/11/14 1:04,2.6,11,2.6,11,3.7,11
2015/11/14 1:05,2.7,11,2.7,11,3.3,12
2015/11/14 1:06,2.7,11,2.7,11,2.7,12
2015/11/14 1:07,2.8,12,2.8,11,3.1,12
2015/11/14 1:08,2.8,11,2.8,11,3,10
2015/11/14 1:09,2.8,11,2.8,11,3.8,11
2015/11/14 1:10,2.8,11,2.9,11,3.6,10
2015/11/14 1:11,2.6,11,2.8,11,3.2,12
2015/11/14 1:12,2.4,12,2.6,11,2,13
2015/11/14 1:13,2.2,12,2.4,11,2.5,13
2015/11/14 1:14,2.1,12,2.2,11,3,15
2015/11/14 1:15,2,12,2.1,11,2.7,14
2015/11/14 1:16,2,12,2,11,2,12
2015/11/14 1:17,1.9,12,2,11,2.5,12
2015/11/14 1:18,1.9,12,2,11,2.2,11
2015/11/14 1:19,1.8,12,1.9,11,2.1,12
2015/11/14 1:20,1.7,12,1.8,11,2,11
2015/11/14 1:21,1.6,12,1.7,11,2.6,10
2015/11/14 1:22,1.7,12,1.7,12,2.7,11
2015/11/14 1:23,1.8,12,1.8,12,3.2,10
2015/11/14 1:24,1.7,12,1.8,12,2.6,11
2015/11/14 1:25,1.8,11,1.8,12,2.9,12
2015/11/14 1:26,1.8,11,1.8,12,3.1,10
2015/11/14 1:27,1.8,11,1.8,12,2.9,11
2015/11/14 1:28,1.8,11,1.8,12,3,11
2015/11/14 1:29,1.9,11,1.9,11,3.7,10
2015/11/14 1:30,2.1,11,2.1,11,3.2,11
2015/11/14 1:31,2.1,11,2.1,11,2.7,12
2015/11/14 1:32,2,11,2.1,11,2.1,11
2015/11/14 1:33,1.9,11,2,11,1.6,10
2015/11/14 1:34,1.8,11,1.8,11,2.1,10
2015/11/14 1:35,1.7,11,1.8,11,1.4,12
2015/11/14 1:36,1.6,11,1.7,11,1.3,11
2015/11/14 1:37,1.4,11,1.6,11,0.9,12
2015/11/14 1:38,1.3,11,1.4,11,0.6,14
2015/11/14 1:39,1,11,1.3,11,0.5,13
2015/11/14 1:40,0.8,12,1,11,1.1,15
2015/11/14 1:41,0.8,12,0.8,11,2,16
2015/11/14 1:42,0.8,13,0.8,11,2.1,1
2015/11/14 1:43,0.9,14,0.9,11,2.1,16
2015/11/14 1:44,0.9,14,0.9,11,1.6,16
2015/11/14 1:45,1,15,1,11,2.4,1
2015/11/14 1:46,1,16,1,11,2.1,2
2015/11/14 1:47,1.1,16,1.1,11,2.5,1
2015/11/14 1:48,1.2,16,1.2,11,1.8,1
2015/11/14 1:49,1.3,1,1.3,1,2.1,2
2015/11/14 1:50,1.3,1,1.3,1,1.8,1
2015/11/14 1:51,1.3,1,1.3,1,1.5,1
2015/11/14 1:52,1.2,1,1.3,1,1.3,1
2015/11/14 1:53,1.1,1,1.2,1,1.4,1
2015/11/14 1:54,1.1,1,1.1,1,1.3,16
2015/11/14 1:55,1.1,1,1.1,1,2,14
2015/11/14 1:56,1.1,16,1.2,1,2.5,15
2015/11/14 1:57,1.2,16,1.2,1,3.5,16
2015/11/14 1:58,1.3,16,1.3,1,2.9,15
2015/11/14 1:59,1.4,16,1.4,16,2.7,15
2015/11/14 2:00,1.4,16,1.4,16,2.1,16
2015/11/14 2:01,1.5,16,1.5,16,3,15
2015/11/14 2:02,1.7,16,1.7,16,3,16
2015/11/14 2:03,1.7,16,1.7,16,3.5,15
2015/11/14 2:04,1.9,15,1.9,16,3.7,16
2015/11/14 2:05,2,16,2,15,2.7,16
2015/11/14 2:06,2,16,2,15,3.3,16
2015/11/14 2:07,2,16,2,15,3.7,16
2015/11/14 2:08,2.1,16,2.1,16,4.1,15
2015/11/14 2:09,2.2,16,2.2,16,3.8,16
2015/11/14 2:10,2.2,16,2.2,16,3.3,16
2015/11/14 2:11,2.2,16,2.2,16,3.1,15
2015/11/14 2:12,2.2,16,2.2,16,2.9,15
2015/11/14 2:13,2.2,16,2.3,16,3.2,16
2015/11/14 2:14,2.2,16,2.2,16,3.1,16
2015/11/14 2:15,2.2,16,2.2,16,3.2,15
2015/11/14 2:16,2.2,16,2.2,16,2,15
2015/11/14 2:17,2,15,2.2,16,1.5,14
2015/11/14 2:18,1.9,15,2,16,1.5,12
2015/11/14 2:19,1.6,15,1.8,16,1,12
2015/11/14 2:20,1.5,14,1.6,16,1.6,8
2015/11/14 2:21,1.3,14,1.5,16,1,8
2015/11/14 2:22,1.3,15,1.3,16,1.8,2
2015/11/14 2:23,1.2,15,1.3,16,2.9,1
2015/11/14 2:24,1.2,15,1.3,16,3.8,2
2015/11/14 2:25,1.3,15,1.3,16,4.3,16
2015/11/14 2:26,1.5,15,1.5,16,5.7,16
2015/11/14 2:27,1.8,16,1.8,15,6.4,1
2015/11/14 2:28,2.2,16,2.2,16,7.4,16
2015/11/14 2:29,2.5,1,2.5,1,5.8,15
2015/11/14 2:30,2.7,1,2.7,1,3.3,16
2015/11/14 2:31,2.9,1,2.9,1,4.2,8
2015/11/14 2:32,3,16,3,1,4.5,9
2015/11/14 2:33,2.9,16,3,1,1.6,10
2015/11/14 2:34,2.8,16,2.9,1,2.7,10
2015/11/14 2:35,2.7,1,2.8,1,3.7,8
2015/11/14 2:36,2.4,4,2.7,1,2.1,6
2015/11/14 2:37,2.1,5,2.4,1,1.1,7
2015/11/14 2:38,1.7,5,2,1,1.9,1
2015/11/14 2:39,1.5,5,1.6,1,2.5,1
2015/11/14 2:40,1.4,4,1.5,1,1.9,1
2015/11/14 2:41,1.3,3,1.4,1,2,1
2015/11/14 2:42,1.2,2,1.3,16,2,1
2015/11/14 2:43,1.3,2,1.3,16,2.2,3
2015/11/14 2:44,1.3,2,1.3,16,2.5,2
2015/11/14 2:45,1.4,2,1.4,1,3,3
2015/11/14 2:46,1.5,2,1.5,5,3.3,1
2015/11/14 2:47,1.7,2,1.7,5,4.4,3
2015/11/14 2:48,2.1,2,2.1,2,5.1,3
2015/11/14 2:49,2.4,2,2.4,2,6,3
2015/11/14 2:50,2.7,2,2.7,2,6,4
2015/11/14 2:51,3,3,3,3,6.4,3
2015/11/14 2:52,3.3,3,3.3,3,5.8,4
2015/11/14 2:53,3.6,3,3.6,3,6.9,2
2015/11/14 2:54,3.9,3,3.9,3,7.2,3
2015/11/14 2:55,4.2,3,4.2,3,6.4,4
2015/11/14 2:56,4.5,3,4.5,3,7,3
2015/11/14 2:57,4.5,4,4.6,4,5.1,4
2015/11/14 2:58,4.4,4,4.5,4,5.4,5
2015/11/14 2:59,4.3,4,4.4,4,5.7,5
2015/11/14 3:00,4.2,4,4.3,4,5.1,5
2015/11/14 3:01,4.1,4,4.2,4,5.7,5
2015/11/14 3:02,3.9,4,4.1,4,5.5,5
2015/11/14 3:03,3.8,4,4,4,4.9,5
2015/11/14 3:04,3.6,4,3.8,4,4.7,5
2015/11/14 3:05,3.4,5,3.6,4,3.7,6
2015/11/14 3:06,3.3,5,3.3,4,5.6,5
2015/11/14 3:07,3.2,5,3.2,4,4.8,4
2015/11/14 3:08,3.3,5,3.3,4,5.1,5
2015/11/14 3:09,3.2,5,3.3,4,4.9,6
2015/11/14 3:10,3,5,3.2,4,3.3,4
2015/11/14 3:11,2.9,5,3,4,2.5,5
2015/11/14 3:12,2.7,5,2.8,4,2.6,5
2015/11/14 3:13,2.6,5,2.7,4,3,4
2015/11/14 3:14,2.5,5,2.6,4,3.3,4
2015/11/14 3:15,2.5,4,2.5,5,3.2,4
2015/11/14 3:16,2.2,4,2.5,5,1.9,4
2015/11/14 3:17,2.1,4,2.2,5,2,4
2015/11/14 3:18,2,4,2.1,5,2.6,3
2015/11/14 3:19,1.8,4,1.9,5,2.6,4
2015/11/14 3:20,1.7,4,1.8,5,2,4
2015/11/14 3:21,1.7,4,1.8,5,2.1,3
2015/11/14 3:22,1.7,4,1.7,5,4.2,4
2015/11/14 3:23,1.7,3,1.7,5,3.3,3
2015/11/14 3:24,1.8,3,1.8,5,4.3,3
2015/11/14 3:25,1.8,3,1.9,4,3.8,3
2015/11/14 3:26,1.9,3,1.9,4,3.7,3
2015/11/14 3:27,2.1,3,2.1,4,4.3,3
2015/11/14 3:28,2.2,3,2.2,3,3.9,4
2015/11/14 3:29,2.3,3,2.3,3,3,3
2015/11/14 3:30,2.4,3,2.4,3,2.7,5
2015/11/14 3:31,2.4,4,2.4,3,2,4
2015/11/14 3:32,2.3,4,2.4,3,1.4,5
2015/11/14 3:33,2.2,4,2.3,3,1.9,5
2015/11/14 3:34,2.1,4,2.2,3,1.8,3
2015/11/14 3:35,1.9,4,2,3,2.1,16
2015/11/14 3:36,1.8,3,1.9,3,1.9,16
2015/11/14 3:37,1.5,3,1.7,3,1.6,16
2015/11/14 3:38,1.3,3,1.5,3,0.9,16
2015/11/14 3:39,1.2,2,1.3,3,1.5,2
2015/11/14 3:40,1,2,1.1,3,1.1,15
2015/11/14 3:41,1,1,1,4,1.3,1
2015/11/14 3:42,0.9,1,1,4,1,16
2015/11/14 3:43,0.9,1,0.9,4,1,6
2015/11/14 3:44,0.8,1,0.9,4,1.1,5
2015/11/14 3:45,0.8,2,0.8,4,1.5,6
2015/11/14 3:46,0.8,2,0.8,3,1.1,8
2015/11/14 3:47,0.8,3,0.8,3,2.2,6
2015/11/14 3:48,0.9,4,0.9,3,3,7
2015/11/14 3:49,1,5,1,2,3.1,7
2015/11/14 3:50,1.1,6,1.1,5,2.4,8
2015/11/14 3:51,1.1,6,1.1,5,1.8,9
2015/11/14 3:52,1.2,7,1.2,6,1.5,7
2015/11/14 3:53,1.3,7,1.3,7,2.2,6
2015/11/14 3:54,1.4,7,1.4,7,2.5,6
2015/11/14 3:55,1.5,7,1.5,7,2.4,5
2015/11/14 3:56,1.4,7,1.5,7,0.9,3
2015/11/14 3:57,1.4,6,1.4,7,0.9,4
2015/11/14 3:58,1.2,6,1.3,7,0.1,16
2015/11/14 3:59,1,6,1.2,7,0.1,3
2015/11/14 4:00,0.9,6,1,7,1.3,11
2015/11/14 4:01,0.8,6,0.9,7,1.4,12
2015/11/14 4:02,0.8,6,0.8,7,1.5,12
2015/11/14 4:03,0.8,7,0.8,7,1.5,11
2015/11/14 4:04,0.8,12,0.8,7,2.2,12
2015/11/14 4:05,0.7,12,0.8,7,2.1,12
2015/11/14 4:06,0.9,12,0.9,7,2.5,12
2015/11/14 4:07,1,12,1,6,2.2,11
2015/11/14 4:08,1.3,11,1.3,12,2.6,12
2015/11/14 4:09,1.5,12,1.5,12,2.5,11
2015/11/14 4:10,1.6,12,1.6,12,2.4,11
2015/11/14 4:11,1.7,11,1.7,12,2.2,9
2015/11/14 4:12,1.7,11,1.7,12,2,10
2015/11/14 4:13,1.7,11,1.7,12,2.1,11
2015/11/14 4:14,1.8,11,1.8,11,2.5,12
2015/11/14 4:15,1.9,11,1.9,11,2.6,11
2015/11/14 4:16,1.9,11,1.9,11,2.7,11
2015/11/14 4:17,1.9,11,1.9,11,2.4,11
2015/11/14 4:18,1.9,11,1.9,11,1.8,11
2015/11/14 4:19,1.9,11,1.9,11,2.5,11
2015/11/14 4:20,1.9,11,1.9,11,2.5,10
2015/11/14 4:21,1.9,11,1.9,11,2.7,10
2015/11/14 4:22,2,11,2,11,2.4,10
2015/11/14 4:23,1.9,11,1.9,11,1.5,10
2015/11/14 4:24,1.7,11,1.9,11,0.8,13
2015/11/14 4:25,1.5,11,1.7,11,0.5,1
2015/11/14 4:26,1.3,11,1.5,11,0.9,13
2015/11/14 4:27,1.2,12,1.3,11,0.9,12
2015/11/14 4:28,1.1,12,1.1,11,1,15
2015/11/14 4:29,1,13,1.1,11,1.3,1
2015/11/14 4:30,0.8,14,1,11,1.3,1
2015/11/14 4:31,0.6,15,0.8,11,0.6,2
2015/11/14 4:32,0.5,16,0.6,11,0.5,2
2015/11/14 4:33,0.4,16,0.5,11,0.1,2
2015/11/14 4:34,0.4,1,0.4,11,0.5,2
2015/11/14 4:35,0.4,1,0.4,11,0.1,2
2015/11/14 4:36,0.3,1,0.4,11,0,2
2015/11/14 4:37,0.3,2,0.3,12,0,2
2015/11/14 4:38,0.2,2,0.3,12,0,2
2015/11/14 4:39,0.1,2,0.2,13,0.1,2
2015/11/14 4:40,0.1,2,0.1,14,0.5,8
2015/11/14 4:41,0.1,2,0.1,15,0.3,8
2015/11/14 4:42,0,3,0.1,16,0,8
2015/11/14 4:43,0.1,4,0.1,16,0.3,12
2015/11/14 4:44,0.1,4,0.1,1,0.9,13
2015/11/14 4:45,0.1,3,0.1,1,0.6,15
2015/11/14 4:46,0.2,14,0.2,1,0.5,14
2015/11/14 4:47,0.2,9,0.2,2,0.5,4
2015/11/14 4:48,0.2,8,0.2,2,0.5,4
2015/11/14 4:49,0.2,7,0.2,3,0.8,4
2015/11/14 4:50,0.3,6,0.3,7,1,6
2015/11/14 4:51,0.3,5,0.3,7,1.1,6
2015/11/14 4:52,0.4,3,0.4,4,1.1,16
2015/11/14 4:53,0.5,2,0.5,2,1.3,16
2015/11/14 4:54,0.4,2,0.4,2,0.5,15
2015/11/14 4:55,0.4,2,0.4,2,0.1,15
2015/11/14 4:56,0.4,2,0.4,2,0.5,14
2015/11/14 4:57,0.3,1,0.4,2,0.5,13
2015/11/14 4:58,0.4,16,0.4,2,0.8,16
2015/11/14 4:59,0.4,16,0.4,2,1.3,16
2015/11/14 5:00,0.5,16,0.5,2,2,2
2015/11/14 5:01,0.5,16,0.5,2,1.9,16
2015/11/14 5:02,0.6,16,0.6,16,1.6,3
2015/11/14 5:03,0.6,16,0.6,16,1.4,5
2015/11/14 5:04,0.7,1,0.7,1,2,4
2015/11/14 5:05,0.8,2,0.8,1,1.8,3
2015/11/14 5:06,0.9,2,0.9,2,1.4,4
2015/11/14 5:07,0.9,3,0.9,2,1.1,4
2015/11/14 5:08,1,3,1,3,0.8,5
2015/11/14 5:09,0.9,4,1,3,0.5,4
2015/11/14 5:10,0.8,4,0.9,3,0.5,6
2015/11/14 5:11,0.7,4,0.8,3,0.8,4
2015/11/14 5:12,0.7,4,0.7,3,0.9,3
2015/11/14 5:13,0.7,4,0.7,3,1,3
2015/11/14 5:14,0.6,4,0.7,3,1.3,2
2015/11/14 5:15,0.6,4,0.6,3,1.3,2
2015/11/14 5:16,0.6,4,0.6,3,1.6,1
2015/11/14 5:17,0.6,3,0.6,3,1.5,1
2015/11/14 5:18,0.6,3,0.6,3,1,1
2015/11/14 5:19,0.7,3,0.7,4,2,7
2015/11/14 5:20,0.9,3,0.9,3,2,6
2015/11/14 5:21,1,3,1,3,2.2,5
2015/11/14 5:22,1,3,1,3,2.1,1
2015/11/14 5:23,1,3,1,3,1.6,1
2015/11/14 5:24,1.1,3,1.1,3,2.2,3
2015/11/14 5:25,1.1,3,1.1,3,2.2,3
2015/11/14 5:26,1.1,3,1.1,3,1.6,2
2015/11/14 5:27,1.1,3,1.1,3,2,3
2015/11/14 5:28,1.2,3,1.2,3,2,2
2015/11/14 5:29,1.2,3,1.2,3,1.4,2
2015/11/14 5:30,1.1,2,1.2,3,1.3,2
2015/11/14 5:31,1,2,1.1,3,1.5,1
2015/11/14 5:32,1.1,2,1.1,3,1.8,1
2015/11/14 5:33,1,2,1.1,3,1.3,2
2015/11/14 5:34,1,2,1,3,0.8,2
2015/11/14 5:35,1,2,1,3,2.4,5
2015/11/14 5:36,1.1,2,1.1,3,1.8,6
2015/11/14 5:37,1.1,3,1.1,3,2.4,5
2015/11/14 5:38,1.1,3,1.1,3,2.5,5
2015/11/14 5:39,1.2,3,1.2,3,2.5,5
2015/11/14 5:40,1.3,4,1.3,3,2.5,3
2015/11/14 5:41,1.4,4,1.4,4,3,3
2015/11/14 5:42,1.4,4,1.4,4,2.1,16
2015/11/14 5:43,1.6,4,1.6,4,4.2,4
2015/11/14 5:44,1.9,4,1.9,4,4.8,3
2015/11/14 5:45,2,4,2,4,4.5,2
2015/11/14 5:46,2.2,3,2.2,3,6.3,3
2015/11/14 5:47,2.3,3,2.3,3,4.7,2
2015/11/14 5:48,2.5,3,2.5,3,5.1,3
2015/11/14 5:49,2.7,3,2.7,3,5.1,3
2015/11/14 5:50,2.8,2,2.8,2,4.5,3
2015/11/14 5:51,2.8,3,2.8,2,2.7,3
2015/11/14 5:52,2.9,3,2.9,3,3.9,2
2015/11/14 5:53,2.7,2,2.9,3,4.2,1
2015/11/14 5:54,2.7,2,2.8,3,3.7,2
2015/11/14 5:55,2.8,2,2.8,3,5.6,2
2015/11/14 5:56,2.8,2,2.9,3,4.8,3
2015/11/14 5:57,2.9,3,2.9,3,4.3,4
2015/11/14 5:58,2.7,2,2.8,3,2.4,2
2015/11/14 5:59,2.4,2,2.6,3,3,3
2015/11/14 6:00,2.4,2,2.4,3,4.9,3
2015/11/14 6:01,2.5,2,2.5,3,5.2,2
2015/11/14 6:02,2.6,2,2.6,2,4.9,3
2015/11/14 6:03,2.8,2,2.8,2,4.7,3
2015/11/14 6:04,2.8,2,2.8,2,3.6,3
2015/11/14 6:05,2.6,2,2.8,2,2.6,3
2015/11/14 6:06,2.4,2,2.6,2,3.9,2
2015/11/14 6:07,2.3,2,2.4,3,2.5,2
2015/11/14 6:08,2.4,2,2.4,2,4.2,3
2015/11/14 6:09,2.5,2,2.5,2,3.5,3
2015/11/14 6:10,2.4,2,2.5,2,2.9,3
2015/11/14 6:11,2.3,2,2.4,2,2.9,3
2015/11/14 6:12,2.2,2,2.3,2,3.7,4
2015/11/14 6:13,2,2,2.2,2,3.1,2
2015/11/14 6:14,2,2,2.1,2,3.7,2
2015/11/14 6:15,2.1,2,2.1,2,3.6,3
2015/11/14 6:16,2.2,2,2.2,2,5,2
2015/11/14 6:17,2.2,2,2.2,2,4.3,2
2015/11/14 6:18,2.4,2,2.4,2,5.1,3
2015/11/14 6:19,2.3,2,2.4,2,3.5,3
2015/11/14 6:20,2.2,2,2.3,2,2.1,2
2015/11/14 6:21,2.3,2,2.3,2,3.7,1
2015/11/14 6:22,2.2,2,2.3,2,2.7,1
2015/11/14 6:23,2.3,2,2.3,2,2.7,3
2015/11/14 6:24,2.3,2,2.3,2,4.5,2
2015/11/14 6:25,2.3,2,2.4,2,4.1,3
2015/11/14 6:26,2.2,2,2.3,2,3.5,2
2015/11/14 6:27,2.2,2,2.3,2,3.8,4
2015/11/14 6:28,2.1,2,2.2,2,3.7,2
2015/11/14 6:29,2.1,2,2.1,2,4.2,1
2015/11/14 6:30,2.1,2,2.1,2,3.1,1
2015/11/14 6:31,2.1,2,2.2,2,3.5,5
2015/11/14 6:32,2.2,2,2.2,2,3.3,2
2015/11/14 6:33,2.1,2,2.2,2,1.8,1
2015/11/14 6:34,1.9,2,2.1,2,3.2,2
2015/11/14 6:35,1.9,2,1.9,2,3.8,3
2015/11/14 6:36,2,2,2,2,3.7,3
2015/11/14 6:37,1.9,2,2,2,2.4,3
2015/11/14 6:38,1.9,2,1.9,2,2.7,1
2015/11/14 6:39,1.9,2,1.9,2,2.4,2
2015/11/14 6:40,1.9,2,1.9,2,3.2,1
2015/11/14 6:41,1.9,2,1.9,2,3.5,2
2015/11/14 6:42,1.9,2,1.9,2,3.7,3
2015/11/14 6:43,2.2,2,2.2,2,4.4,4
2015/11/14 6:44,2.3,3,2.3,2,4.2,3
2015/11/14 6:45,2.2,3,2.3,2,2.7,2
2015/11/14 6:46,2.1,3,2.2,2,3.1,3
2015/11/14 6:47,2.1,3,2.1,2,2.4,3
2015/11/14 6:48,2.1,3,2.1,2,2.4,1
2015/11/14 6:49,2.1,3,2.1,2,3,2
2015/11/14 6:50,2.2,3,2.2,2,4.2,3
2015/11/14 6:51,2.3,3,2.3,2,3.9,3
2015/11/14 6:52,2.3,3,2.3,2,3.9,3
2015/11/14 6:53,2.2,3,2.3,2,3.1,2
2015/11/14 6:54,2.1,3,2.2,3,3,3
2015/11/14 6:55,2.3,3,2.3,3,4.8,3
2015/11/14 6:56,2.4,3,2.4,3,4.7,3
2015/11/14 6:57,2.4,3,2.4,3,3,4
2015/11/14 6:58,2.5,3,2.5,3,3,3
2015/11/14 6:59,2.5,3,2.6,3,3.5,3
2015/11/14 7:00,2.4,3,2.5,3,3.6,3
2015/11/14 7:01,2.5,3,2.5,3,5.2,4
2015/11/14 7:02,2.5,3,2.5,3,4.5,3
2015/11/14 7:03,2.5,3,2.5,3,3,4
2015/11/14 7:04,2.5,3,2.5,3,2.9,2
2015/11/14 7:05,2.3,3,2.5,3,2.4,3
2015/11/14 7:06,2.2,3,2.3,3,2.2,2
2015/11/14 7:07,2.1,3,2.1,3,2.5,2
2015/11/14 7:08,2.1,3,2.1,3,3.5,4
2015/11/14 7:09,2.2,3,2.2,3,3.2,3
2015/11/14 7:10,2.2,3,2.2,3,3,3
2015/11/14 7:11,2,3,2.2,3,2.9,3
2015/11/14 7:12,2,3,2,3,3.3,3
2015/11/14 7:13,2,3,2.1,3,3.1,3
2015/11/14 7:14,2.1,3,2.1,3,3.7,3
2015/11/14 7:15,2.2,3,2.2,3,4.2,3
2015/11/14 7:16,2.2,3,2.2,3,2.9,4
2015/11/14 7:17,2.3,3,2.3,3,3.5,4
2015/11/14 7:18,2.4,3,2.4,3,3.1,3
2015/11/14 7:19,2.2,3,2.4,3,2.7,3
2015/11/14 7:20,2.1,3,2.2,3,2.5,16
2015/11/14 7:21,2.2,3,2.2,3,3.5,3
2015/11/14 7:22,2.2,3,2.2,3,3.3,3
2015/11/14 7:23,2.3,3,2.3,3,3.2,3
2015/11/14 7:24,2.2,3,2.3,3,2.9,3
2015/11/14 7:25,2.1,3,2.2,3,3.6,3
2015/11/14 7:26,2.2,3,2.2,3,3.8,4
2015/11/14 7:27,2.2,3,2.2,3,3.7,3
2015/11/14 7:28,2.3,3,2.3,3,3.5,3
2015/11/14 7:29,2.4,3,2.4,3,2.7,3
2015/11/14 7:30,2.4,3,2.4,3,3.2,1
2015/11/14 7:31,2.5,3,2.5,3,5,4
2015/11/14 7:32,2.5,3,2.5,3,3.8,5
2015/11/14 7:33,2.4,3,2.5,3,3.8,1
2015/11/14 7:34,2.3,3,2.4,3,3.7,3
2015/11/14 7:35,2.5,3,2.5,3,3.9,3
2015/11/14 7:36,2.5,3,2.5,3,3.2,3
2015/11/14 7:37,2.4,3,2.5,3,2.5,3
2015/11/14 7:38,2.3,3,2.4,3,1.9,3
2015/11/14 7:39,2.3,3,2.3,3,3.3,2
2015/11/14 7:40,2.4,3,2.4,3,4.7,4
2015/11/14 7:41,2.3,3,2.4,3,5,6
2015/11/14 7:42,2.3,3,2.3,3,4.3,6
2015/11/14 7:43,2.4,4,2.4,3,4.2,4
2015/11/14 7:44,2.4,4,2.4,3,3.5,2
2015/11/14 7:45,2.3,4,2.4,3,3.3,4
2015/11/14 7:46,2.2,4,2.3,3,4.1,3
2015/11/14 7:47,2.3,4,2.3,3,3.7,3
2015/11/14 7:48,2.3,4,2.3,3,2.7,3
2015/11/14 7:49,2.3,4,2.3,3,2.6,3
2015/11/14 7:50,2.2,4,2.3,3,2.4,4
2015/11/14 7:51,2,4,2.2,3,1.8,3
2015/11/14 7:52,1.9,3,2,3,2.4,3
2015/11/14 7:53,1.9,3,1.9,4,2.9,4
2015/11/14 7:54,1.8,3,1.9,4,2.1,4
2015/11/14 7:55,1.7,3,1.8,4,2.7,3
2015/11/14 7:56,1.8,3,1.8,4,3.5,4
2015/11/14 7:57,1.7,3,1.8,4,3.2,1
2015/11/14 7:58,1.7,3,1.7,4,4.2,2
2015/11/14 7:59,1.7,3,1.8,4,3.5,4
2015/11/14 8:00,1.8,3,1.8,4,2.7,3
2015/11/14 8:01,1.9,3,1.9,4,3.3,3
2015/11/14 8:02,2,3,2,3,3.3,3
2015/11/14 8:03,2,3,2,3,3,3
2015/11/14 8:04,2.1,3,2.1,3,2.2,3
2015/11/14 8:05,2.1,3,2.1,3,2.9,4
2015/11/14 8:06,2.1,3,2.1,3,3.1,3
2015/11/14 8:07,2.2,3,2.2,3,4.3,3
2015/11/14 8:08,2.2,3,2.3,3,3.9,3
2015/11/14 8:09,2.2,2,2.2,3,2.5,2
2015/11/14 8:10,2.2,2,2.2,3,3.2,2
2015/11/14 8:11,2.1,2,2.2,3,3.2,3
2015/11/14 8:12,2.1,2,2.1,3,3.2,2
2015/11/14 8:13,2.1,2,2.1,3,3.3,3
2015/11/14 8:14,2.2,2,2.2,3,2.7,3
2015/11/14 8:15,2,2,2.1,3,1.1,2
2015/11/14 8:16,2,2,2,3,2,3
2015/11/14 8:17,1.7,2,1.9,3,0.9,2
2015/11/14 8:18,1.6,2,1.7,3,3.1,3
2015/11/14 8:19,1.6,2,1.6,2,3.1,4
2015/11/14 8:26,2.5,3,2.5,3,3,4
2015/11/14 8:27,1.6,3,2.5,3,3,4
2015/11/14 8:28,1.8,2,1.8,3,3.7,3
2015/11/14 8:29,2.5,3,2.5,3,4.7,3
2015/11/14 8:30,2.6,3,2.6,3,3.7,3
2015/11/14 8:31,2.9,3,2.9,3,5.4,3
2015/11/14 8:32,3,3,3,3,4.8,3
2015/11/14 8:33,3,3,3,3,4.2,3
2015/11/14 8:34,3,3,3,3,4.7,3
2015/11/14 8:35,2.9,3,3,3,3,5
2015/11/14 8:36,2.8,3,2.9,3,2.7,5
2015/11/14 8:37,2.7,3,2.7,3,2.1,4
2015/11/14 8:38,2.7,4,2.8,3,2.9,4
2015/11/14 8:39,2.6,4,2.7,3,3.8,4
2015/11/14 8:40,2.5,4,2.5,3,3.9,3
2015/11/14 8:41,2.4,4,2.5,3,3.9,4
2015/11/14 8:42,2.2,4,2.3,3,3.7,4
2015/11/14 8:43,2.2,4,2.2,3,3.1,4
2015/11/14 8:44,2,4,2.1,3,2.9,3
2015/11/14 8:45,2,4,2,3,3.2,4
2015/11/14 8:46,2.1,4,2.1,4,3.3,4
2015/11/14 8:47,2.3,4,2.3,4,3.3,3
2015/11/14 8:48,2.2,4,2.3,4,3.1,3
2015/11/14 8:49,2.1,3,2.2,4,2.6,2
2015/11/14 8:50,2.2,3,2.2,4,4.1,2
2015/11/14 8:51,2.3,3,2.3,4,4.1,5
2015/11/14 8:52,2.3,3,2.4,3,4.2,3
2015/11/14 8:53,2.3,3,2.3,3,3.1,2
2015/11/14 8:54,2.2,3,2.3,3,1.9,4
2015/11/14 8:55,2.2,3,2.2,3,2.2,3
2015/11/14 8:56,2.1,3,2.2,3,2.5,2
2015/11/14 8:57,2,3,2.1,3,2.1,3
2015/11/14 8:58,2,3,2,3,1.8,4
2015/11/14 8:59,2,3,2,3,2.2,2
2015/11/14 9:00,1.9,3,2,3,3.3,2
2015/11/14 9:01,1.7,3,1.9,3,2.5,3
2015/11/14 9:02,1.6,3,1.7,3,2.5,1
2015/11/14 9:03,1.7,3,1.7,3,3.6,3
2015/11/14 9:04,1.7,3,1.7,3,2.6,3
2015/11/14 9:05,1.7,3,1.7,3,2.6,4
2015/11/14 9:06,1.7,3,1.7,3,2.6,3
2015/11/14 9:07,1.8,3,1.8,3,3.3,3
2015/11/14 9:08,1.9,3,1.9,3,3.2,3
2015/11/14 9:09,1.9,3,2,3,3.6,3
2015/11/14 9:10,1.9,3,1.9,3,2.4,2
2015/11/14 9:11,1.9,3,1.9,3,2.7,3
2015/11/14 9:12,1.9,3,1.9,3,2.1,3
2015/11/14 9:13,1.7,2,1.9,3,3,3
2015/11/14 9:14,1.8,3,1.8,3,3.2,4
2015/11/14 9:15,1.8,3,1.8,3,2.7,3
2015/11/14 9:16,1.8,3,1.8,3,3.1,2
2015/11/14 9:17,1.7,2,1.8,3,2.2,2
2015/11/14 9:18,1.7,2,1.7,3,2.9,3
2015/11/14 9:19,1.7,3,1.7,3,2.5,3
2015/11/14 9:20,1.6,3,1.7,3,1.5,3
2015/11/14 9:21,1.7,3,1.7,3,3.5,1
2015/11/14 9:22,1.7,2,1.7,3,3.2,3
2015/11/14 9:23,1.7,2,1.7,2,2,2
2015/11/14 9:24,1.6,2,1.7,3,2.4,3
2015/11/14 9:25,1.7,2,1.7,3,3,3
2015/11/14 9:26,1.7,2,1.7,3,3.1,3
2015/11/14 9:27,1.7,2,1.7,2,2.4,1
2015/11/14 9:28,1.7,2,1.7,2,3.6,3
2015/11/14 9:29,1.7,2,1.7,3,2.9,3
2015/11/14 9:30,1.9,2,1.9,2,2.9,5
2015/11/14 9:31,1.8,3,1.9,2,2.9,4
2015/11/14 9:32,1.7,3,1.8,2,1.8,3
2015/11/14 9:33,1.7,2,1.7,2,1.4,1
2015/11/14 9:34,1.6,3,1.7,2,1.9,3
2015/11/14 9:35,1.6,3,1.6,2,1.8,3
2015/11/14 9:36,1.4,3,1.5,2,2,3
2015/11/14 9:37,1.4,3,1.5,2,2.2,3
2015/11/14 9:38,1.3,3,1.4,2,1.3,5
2015/11/14 9:39,1.2,3,1.3,2,1.8,6
2015/11/14 9:40,1.1,3,1.2,2,1.6,4
2015/11/14 9:41,1,3,1.1,3,1.3,4
2015/11/14 9:42,1,3,1,3,1.3,3
2015/11/14 9:43,1,3,1.1,2,1.1,1
2015/11/14 9:44,0.9,3,1,3,0.6,7
2015/11/14 9:45,0.9,4,0.9,3,1,6
2015/11/14 9:46,0.9,4,0.9,3,1.3,4
2015/11/14 9:47,0.8,4,0.8,3,0.5,3
2015/11/14 9:48,0.8,4,0.8,3,1.3,2
2015/11/14 9:49,0.7,4,0.7,3,1.3,1
2015/11/14 9:50,0.7,3,0.7,3,2.1,16
2015/11/14 9:51,0.9,3,0.9,3,3.3,1
2015/11/14 9:52,0.9,3,0.9,3,1.9,15
2015/11/14 9:53,1.1,3,1.1,3,5.2,3
2015/11/14 9:54,1.3,3,1.3,3,3,3
2015/11/14 9:55,1.4,3,1.4,3,3.2,4
2015/11/14 9:56,1.4,3,1.4,3,2,1
2015/11/14 9:57,1.5,2,1.5,3,1.8,3
2015/11/14 9:58,1.5,2,1.5,3,2.2,3
2015/11/14 9:59,1.6,3,1.6,2,3,6
2015/11/14 10:00,1.6,3,1.6,2,2.9,6
2015/11/14 10:01,1.5,3,1.6,2,2.5,2
2015/11/14 10:02,1.7,3,1.7,3,4.2,3
2015/11/14 10:03,1.7,3,1.8,3,3.8,4
2015/11/14 10:04,1.8,3,1.8,3,3.3,4
2015/11/14 10:05,1.8,3,1.8,3,3.3,4
2015/11/14 10:06,1.9,3,1.9,3,3,4
2015/11/14 10:07,2.1,3,2.1,3,4.3,4
2015/11/14 10:08,2.2,3,2.2,3,3.2,4
2015/11/14 10:09,2.2,3,2.2,3,4.2,3
2015/11/14 10:10,2.4,3,2.4,3,3.8,3
2015/11/14 10:11,2.4,3,2.4,3,3,2
2015/11/14 10:12,2.4,3,2.4,3,3.1,4
2015/11/14 10:13,2.3,3,2.4,3,2.7,4
2015/11/14 10:14,2.3,3,2.3,3,2.9,6
2015/11/14 10:15,2.1,3,2.3,3,1.8,3
2015/11/14 10:16,2.1,3,2.1,3,2.1,3
2015/11/14 10:17,2,3,2.1,3,1.8,3
2015/11/14 10:18,1.8,3,2,3,2.5,4
2015/11/14 10:19,1.8,3,1.9,3,2.4,3
2015/11/14 10:20,1.5,3,1.8,3,1.1,4
2015/11/14 10:21,1.5,3,1.5,3,2.5,3
2015/11/14 10:22,1.5,3,1.6,3,2.2,3
2015/11/14 10:23,1.3,3,1.4,3,1.4,1
2015/11/14 10:24,1.3,2,1.3,3,1.8,2
2015/11/14 10:25,1.3,2,1.3,3,2.4,3
2015/11/14 10:26,1.3,2,1.3,3,2.1,2
2015/11/14 10:27,1.3,2,1.3,3,2.5,1
2015/11/14 10:28,1.3,2,1.3,3,2,2
2015/11/14 10:29,1.3,2,1.3,3,2.6,3
2015/11/14 10:30,1.5,2,1.5,3,3.5,3
2015/11/14 10:31,1.5,2,1.6,3,2.9,3
2015/11/14 10:32,1.5,2,1.5,2,1.9,2
2015/11/14 10:33,1.6,2,1.6,2,2,3
2015/11/14 10:34,1.7,2,1.7,2,2.1,4
2015/11/14 10:35,1.7,3,1.7,2,2.2,4
2015/11/14 10:36,1.8,3,1.8,3,2.9,3
2015/11/14 10:37,1.8,3,1.8,3,2.7,3
2015/11/14 10:38,1.8,3,1.8,3,1.6,4
2015/11/14 10:39,1.7,3,1.8,3,2.7,4
2015/11/14 10:40,1.6,3,1.7,3,2.6,4
2015/11/14 10:41,1.6,4,1.6,3,2.7,5
2015/11/14 10:42,1.7,4,1.7,3,3.6,3
2015/11/14 10:43,1.7,4,1.7,3,3,3
2015/11/14 10:44,1.7,4,1.7,3,1.9,3
2015/11/14 10:45,1.7,4,1.7,3,2.6,4
2015/11/14 10:46,1.6,3,1.7,3,1.9,3
2015/11/14 10:47,1.8,3,1.8,3,4.3,1
2015/11/14 10:48,1.9,3,1.9,3,3.7,3
2015/11/14 10:49,2,3,2,3,3.1,3
2015/11/14 10:50,2,3,2,3,3.7,3
2015/11/14 10:51,2.1,3,2.1,3,3.8,3
2015/11/14 10:52,2.2,3,2.2,3,5.4,3
2015/11/14 10:53,2.4,2,2.4,2,5.2,2
2015/11/14 10:54,2.4,2,2.4,2,3.2,1
2015/11/14 10:55,2.5,2,2.5,2,5.4,2
2015/11/14 10:56,2.6,2,2.7,2,4.9,3
2015/11/14 10:57,2.6,2,2.7,2,4.1,3
2015/11/14 10:58,2.6,2,2.7,2,4.7,3
2015/11/14 10:59,2.6,2,2.6,2,3.2,2
2015/11/14 11:00,2.7,2,2.7,2,3,4
2015/11/14 11:01,2.6,2,2.7,2,3.1,2
2015/11/14 11:02,2.5,2,2.6,2,3,1
2015/11/14 11:03,2.3,2,2.5,2,3.3,2
2015/11/14 11:04,2.4,2,2.5,2,5.8,4
2015/11/14 11:05,2.4,2,2.4,2,3.3,1
2015/11/14 11:06,2.3,2,2.3,2,3,2
2015/11/14 11:07,2.4,2,2.4,2,4.9,4
2015/11/14 11:08,2.3,2,2.4,2,3.9,3
2015/11/14 11:09,2.4,2,2.4,2,3.8,4
2015/11/14 11:10,2.4,2,2.4,2,3.5,3
2015/11/14 11:11,2.6,2,2.6,2,5.4,2
2015/11/14 11:12,2.7,2,2.7,2,3.9,1
2015/11/14 11:13,2.6,3,2.7,2,3,4
2015/11/14 11:14,2.5,3,2.6,2,2.6,3
2015/11/14 11:15,2.5,3,2.5,2,2.6,2
2015/11/14 11:16,2.5,3,2.5,2,2.6,2
2015/11/14 11:17,2.3,2,2.5,2,3.1,2
2015/11/14 11:18,2.2,2,2.3,2,2,1
2015/11/14 11:19,2.1,2,2.2,2,3,2
2015/11/14 11:20,2,2,2.1,2,3.3,16
2015/11/14 11:21,2,2,2,2,5.1,1
2015/11/14 11:22,2,2,2,2,3.5,2
2015/11/14 11:23,2,2,2,3,4.4,3
2015/11/14 11:24,2.1,2,2.1,3,3.9,3
2015/11/14 11:25,2.2,2,2.2,3,3.7,4